sat.trackr.live / text

‹ back to catalog

STARLINK-5597

NORAD 55403 · 2023-014N

PAYLOAD ACTIVE UNKNOWN

§ Identity

Operator
Country
US
Launch date
2023-01-31
Launch site
AFWTR
Launch vehicle
Mass (kg)
RCS (m²)

Purposes: comms

External: N2YO · Heavens-Above · Gunter

§ Orbital elements

Epoch: 2026-05-24T23:34:45.475392Z

Period
96.11 min
Inclination
69.9994°
Eccentricity
0.0003355
Mean motion
14.98330765 rev/d
Perigee alt
569.7 km
Apogee alt
574.4 km
Semi-major
6,950.2 km
B*
4.5731e-5
RAAN
232.0791°
Arg perigee
268.7742°
Mean anomaly
91.3033°
Rev number
18,348

§ Raw data

STARLINK-55971 55403U 23014N   26144.98247078  .00000453  00000+0  45731-4 0  99942 55403  69.9994 232.0791 0003355 268.7742  91.3033 14.98330765183480

JSON: /api/v1/satellites/55403 · /tle

For live sub-satellite position, see the globe view (requires WebGL).

§ Visibility from observer

Set your observer location to see the next 7 days of passes ≥ 10°. The values pass through the URL so the page stays shareable.

No JS? Fill the form by hand. The geolocation button needs JavaScript.